Flag for Benin Weather past 2 weeks in Porto Novo, Benin

Now
77 °F

Passing clouds.


Feels Like: 78 °F
Forecast: 75 / 85 °F
Wind: 8 mph from Southwest

Location: Cotonou Airport

Current Time: Aug 29, 2015 at 7:13:41 AM

Latest Report: Aug 29, 2015 at 6:00 AM


Visibility: 5 mi

Pressure: 29.92 "Hg

Humidity: 94%

Dew point: 75 °F

Location of Porto NovoLocation

Historic Weather in Porto Novo — Graph

°F

Porto Novo temperature yesterday

Maximum temperature yesterday: 84 °F (at 2:00 PM)
Minimum temperature yesterday: 77 °F (at 12:00 AM)
Average temperature yesterday: 79 °F

Past Weeks' High & Low Weather Summary

 TemperatureHumidityPressure
High84 °F (Aug 25, 2:00 PM)100% (Aug 14, 12:00 PM)30.01 "Hg (Aug 14, 12:00 PM)
Low73 °F (Aug 24, 9:00 PM)79% (Aug 22, 12:00 PM)29.77 "Hg (Aug 23, 6:00 PM)
Average78 °F92%29.89 "Hg
* Reported Aug 14 6:00 AM — Aug 29 6:00 AM, Porto Novo, Weather by CustomWeather, © 2015

Note: Actual official high and low records may vary slightly from our data, if they occured in-between our weather recording intervals... More about our weather records

Advertising

Porto Novo weather history for previous 24 hours

 ConditionsComfort  
Time TempWeatherWind HumidityBarometerVisibility
6:00 AM
Sat, Aug 29
77 °FPassing clouds.8 mph94%29.92 "Hg5 mi
5:00 AM77 °FPassing clouds.8 mph94%29.89 "Hg5 mi
4:00 AM77 °FPassing clouds.9 mph94%29.89 "Hg5 mi
3:00 AM77 °FPassing clouds.8 mph94%29.89 "Hg5 mi
2:00 AM77 °FPassing clouds.13 mph94%29.89 "Hg5 mi
1:00 AM77 °FPassing clouds.12 mph94%29.92 "Hg5 mi
12:00 AM77 °FPassing clouds.10 mph94%29.92 "Hg5 mi
11:00 PM
Fri, Aug 28
77 °FPassing clouds.8 mph94%29.92 "Hg5 mi
10:00 PM77 °FPassing clouds.9 mph94%29.89 "Hg5 mi
9:00 PM77 °FPassing clouds.12 mph94%29.89 "Hg5 mi
8:00 PM77 °FPassing clouds.13 mph94%29.86 "Hg5 mi
7:00 PM77 °FPassing clouds.13 mph94%29.86 "HgN/A
6:00 PM79 °FPassing clouds.15 mph89%29.83 "HgN/A
5:00 PM79 °FPassing clouds.16 mph89%29.83 "HgN/A
4:00 PM81 °FPassing clouds.13 mph89%29.86 "HgN/A
3:00 PM82 °FPassing clouds.15 mph84%29.89 "HgN/A
2:00 PM84 °FPassing clouds.15 mph79%29.89 "HgN/A
1:00 PM82 °FScattered clouds.15 mph84%29.92 "HgN/A
12:00 PM82 °FScattered clouds.15 mph84%29.95 "HgN/A
11:00 AM81 °FScattered clouds.14 mph84%29.95 "HgN/A
10:00 AM81 °FScattered clouds.15 mph84%29.95 "HgN/A
9:00 AM79 °FScattered clouds.15 mph89%29.92 "HgN/A
8:00 AM79 °FScattered clouds.15 mph89%29.89 "HgN/A
7:00 AM77 °FScattered clouds.14 mph94%29.89 "HgN/A
Weather by CustomWeather, © 2015

See weather overviewHow to use our weather pages